Total_Precipitation_Accumulation
1.01 0.86 1.35 1.31 1.07 0.96 0.93 0.93 0.92 0.95 0.94 0.83 0.74 0.63 0.51 0.48 0.44 0.42 0.42 0.41 0.38 0.37 0.39 0.41 0.42 0.45 0.39 0.38 0.45 0.53 0.64 0.70 0.63 0.59 0.63 0.68 0.69 0.78 1.03 1.20 1.26 1.40 1.28
0.70 0.74 1.25 1.26 1.08 0.97 0.95 0.98 0.97 0.95 0.88 0.81 0.73 0.60 0.55 0.48 0.48 0.45 0.39 0.38 0.35 0.35 0.38 0.39 0.44 0.45 0.40 0.43 0.51 0.61 0.69 0.72 0.67 0.68 0.84 0.92 0.90 0.93 1.01 1.12 1.22 1.29 1.24
0.69 0.70 0.94 1.17 1.12 1.03 0.97 0.93 0.94 0.93 0.89 0.88 0.80 0.67 0.61 0.53 0.48 0.44 0.38 0.34 0.34 0.35 0.41 0.43 0.46 0.43 0.43 0.48 0.55 0.63 0.65 0.73 0.81 0.91 1.18 1.58 1.24 0.99 0.95 1.03 0.99 1.00 1.09
0.66 0.69 0.92 1.22 1.19 1.11 1.06 1.06 1.06 0.96 0.89 0.89 0.81 0.73 0.65 0.60 0.54 0.55 0.55 0.42 0.39 0.41 0.44 0.41 0.40 0.42 0.48 0.55 0.58 0.58 0.60 0.77 0.94 1.01 1.20 1.48 1.45 1.14 1.07 1.16 1.11 1.03 1.09
0.68 0.69 1.00 1.29 1.20 1.11 1.13 1.22 1.20 1.10 0.98 0.89 0.84 0.80 0.74 0.68 0.67 0.72 0.64 0.55 0.53 0.53 0.54 0.55 0.51 0.51 0.58 0.63 0.62 0.60 0.70 0.88 0.98 0.93 1.04 1.24 1.69 1.47 1.15 1.26 1.25 1.11 1.08
0.56 0.59 0.92 1.32 1.22 1.12 1.13 1.26 1.19 1.07 1.05 0.96 0.92 0.89 0.86 0.82 0.82 0.82 0.74 0.71 0.65 0.63 0.63 0.64 0.62 0.62 0.65 0.66 0.66 0.72 0.87 0.95 0.91 1.07 1.15 1.25 1.60 1.51 1.16 1.11 1.08 1.04 1.09
0.56 0.56 0.79 1.19 1.18 1.06 1.06 1.14 1.11 1.06 1.09 0.98 0.92 0.93 0.92 0.91 0.92 0.98 0.92 0.82 0.80 0.77 0.76 0.74 0.69 0.62 0.63 0.68 0.71 0.79 0.93 0.88 0.88 1.18 1.18 1.39 1.45 1.34 1.08 1.02 0.99 1.07 1.20
0.69 0.57 0.66 0.99 1.04 0.99 1.02 1.07 1.08 1.03 0.98 0.87 0.88 0.92 0.93 0.92 0.98 1.02 1.00 0.92 0.88 0.86 0.87 0.86 0.82 0.72 0.70 0.71 0.76 0.79 0.88 0.80 0.70 0.95 1.11 1.35 1.50 1.41 1.08 1.00 1.05 1.09 1.29
1.03 0.86 0.76 0.78 0.81 0.87 0.97 1.00 1.14 1.16 0.98 0.85 0.83 0.82 0.81 0.82 0.85 0.92 0.94 0.89 0.85 0.89 0.88 0.88 0.87 0.83 0.82 0.79 0.78 0.80 0.87 0.86 0.79 0.86 0.89 1.24 1.47 1.40 1.14 1.05 1.03 1.08 1.28
1.01 0.97 0.91 0.90 0.86 0.84 0.86 1.02 1.29 1.40 1.22 0.97 0.86 0.81 0.81 0.75 0.74 0.81 0.79 0.81 0.85 0.93 0.96 0.98 0.96 0.89 0.94 0.94 0.91 0.87 0.89 0.76 0.64 0.69 0.84 1.05 1.43 1.43 1.27 1.07 0.95 0.91 1.07
0.91 0.91 0.87 0.88 0.92 1.03 1.03 1.09 1.35 1.51 1.47 1.11 0.91 0.89 0.79 0.62 0.74 0.78 0.66 0.83 0.93 1.03 1.04 1.07 1.03 0.97 1.01 0.99 0.98 1.00 0.81 0.58 0.58 0.68 0.86 1.13 1.53 1.60 1.34 1.09 0.98 0.90 0.86
0.75 0.74 0.74 0.76 0.75 0.81 0.87 1.19 1.40 1.32 1.39 1.11 1.06 0.98 0.88 0.90 0.93 0.79 0.70 0.84 1.00 1.11 1.09 1.08 1.10 1.05 0.94 0.78 0.77 0.80 0.59 0.47 0.50 0.58 0.75 1.16 1.62 1.76 1.49 1.21 1.02 0.90 0.83
0.59 0.52 0.48 0.53 0.53 0.58 0.68 0.85 1.14 1.40 1.44 1.41 1.34 1.25 1.17 1.07 0.89 0.78 0.76 0.77 0.87 0.97 0.94 1.02 1.01 0.88 0.81 0.77 0.75 0.65 0.55 0.49 0.53 0.55 0.78 1.17 1.57 1.74 1.55 1.23 1.00 0.90 0.96
0.58 0.58 0.48 0.42 0.46 0.46 0.50 0.64 0.89 1.11 1.26 1.28 1.19 1.10 1.28 1.21 0.97 0.87 0.93 0.94 0.91 0.96 1.09 1.13 1.06 0.96 0.87 0.79 0.77 0.69 0.63 0.62 0.61 0.63 0.90 0.99 1.29 1.57 1.69 1.46 1.17 0.98 1.00
0.57 0.62 0.56 0.43 0.37 0.42 0.45 0.51 0.60 0.84 1.00 1.00 1.13 1.09 1.13 1.11 0.98 0.90 0.90 1.04 0.99 1.00 1.13 1.23 1.09 0.99 1.00 0.97 0.91 0.87 0.81 0.73 0.75 0.70 0.82 0.89 1.04 1.36 1.78 1.76 1.46 1.14 1.13
0.51 0.53 0.54 0.49 0.47 0.46 0.44 0.44 0.49 0.54 0.71 0.74 0.75 0.74 0.94 1.04 1.02 1.04 0.93 1.02 1.16 1.18 1.16 1.15 1.13 1.03 0.99 1.03 0.98 0.98 0.95 0.79 0.78 0.80 0.87 0.85 0.84 1.03 1.49 1.78 1.60 1.36 1.35
0.44 0.44 0.48 0.54 0.59 0.57 0.57 0.57 0.54 0.55 0.58 0.65 0.72 0.73 0.86 0.96 1.03 1.05 0.92 0.96 1.10 1.28 1.25 1.19 1.13 1.09 0.95 0.90 0.97 1.02 1.03 0.92 0.89 0.96 0.92 0.91 0.81 0.89 1.18 1.62 1.73 1.58 1.57
0.34 0.33 0.39 0.45 0.52 0.58 0.62 0.66 0.62 0.66 0.67 0.65 0.70 0.68 0.73 0.88 1.04 1.12 1.04 0.99 1.14 1.31 1.47 1.51 1.33 1.24 1.11 1.04 1.08 1.07 1.02 1.07 1.03 0.99 0.98 1.03 1.00 0.89 0.95 1.17 1.47 1.74 1.81
0.28 0.26 0.29 0.34 0.41 0.48 0.57 0.65 0.67 0.69 0.83 0.91 0.79 0.65 0.72 0.86 0.96 1.17 1.25 1.20 1.23 1.38 1.44 1.45 1.45 1.32 1.29 1.24 1.11 1.06 1.01 1.07 1.14 0.99 0.98 1.05 1.16 1.10 1.01 0.85 0.92 1.14 1.47
0.24 0.23 0.25 0.31 0.33 0.36 0.47 0.64 0.73 0.70 0.80 1.01 1.05 1.02 1.05 1.12 1.18 1.34 1.43 1.42 1.42 1.47 1.45 1.57 1.74 1.53 1.36 1.37 1.24 1.11 1.04 1.05 1.08 1.08 1.08 1.08 1.17 1.16 1.09 0.92 0.84 0.68 0.88
0.18 0.19 0.24 0.29 0.32 0.34 0.42 0.53 0.62 0.72 0.90 1.11 1.17 1.22 1.36 1.38 1.40 1.55 1.65 1.68 1.61 1.52 1.57 1.75 2.09 1.98 1.62 1.45 1.47 1.35 1.19 1.12 1.15 1.10 1.12 1.20 1.15 1.13 1.20 1.10 0.92 0.85 0.74
0.11 0.12 0.18 0.27 0.36 0.42 0.48 0.62 0.77 1.00 1.11 1.26 1.41 1.39 1.42 1.47 1.50 1.58 1.79 1.90 1.84 1.81 1.91 1.93 2.14 2.28 2.02 1.81 1.78 1.95 1.74 1.52 1.19 0.96 1.00 1.06 1.10 1.19 1.19 1.22 1.12 0.99 0.94
0.09 0.11 0.18 0.32 0.51 0.72 0.82 1.05 1.33 1.58 1.66 1.59 1.58 1.62 1.61 1.64 1.70 1.68 1.80 2.00 1.96 1.91 1.95 2.13 2.38 2.64 2.57 2.33 2.11 2.22 1.97 1.75 1.61 1.12 0.89 0.95 1.05 1.18 1.22 1.31 1.29 1.17 1.11
0.13 0.23 0.38 0.62 0.92 1.17 1.32 1.52 1.72 1.83 1.87 1.80 1.82 1.80 1.78 1.70 1.63 1.63 1.75 1.95 2.09 2.16 2.21 2.27 2.28 2.58 2.78 2.62 2.50 2.21 1.93 1.80 1.88 1.63 1.16 0.93 0.99 1.06 1.12 1.17 1.26 1.31 1.27
0.42 0.61 0.89 1.15 1.39 1.53 1.58 1.68 1.88 2.04 2.19 2.20 2.09 1.94 1.82 1.79 1.72 1.63 1.68 1.76 1.80 1.87 1.99 2.12 2.20 2.40 2.53 2.67 2.65 2.48 2.24 2.08 1.65 1.62 1.61 1.34 1.10 0.92 0.96 1.09 1.27 1.33 1.33
0.86 1.03 1.24 1.39 1.53 1.52 1.52 1.58 1.71 1.90 2.06 2.08 2.10 2.07 1.93 1.79 1.69 1.59 1.55 1.65 1.68 1.68 1.79 1.91 2.01 2.23 2.39 2.52 2.59 2.47 2.33 2.26 2.01 1.76 1.58 1.54 1.43 1.14 0.97 0.97 1.07 1.18 1.26